Weather History for Gwinner, ND

Change the Weather History Date:

Thursday, February 21, 2013

  Actual Average (KP67) Record (KP67)
Temperature  
Mean Temperature 8 °F -  
Max Temperature 14 °F 28 °F 35 °F (1998)
Min Temperature 1 °F 13 °F 8 °F (1997)
Degree Days  
Heating Degree Days 58    
Moisture  
Dew Point 3 °F    
Average Humidity 78    
Maximum Humidity 85    
Minimum Humidity 72    
Precipitation  
Precipitation 0.00 in - - ()
Sea Level Pressure  
Sea Level Pressure 30.25 in    
Wind  
Wind Speed 9 mph (East)    
Max Wind Speed 17 mph    
Max Gust Speed -    
Visibility 10 miles    
Events      
Averages and records for this station are not official NWS values.
T = Trace of Precipitation, MM = Missing Value Source: NWS Daily Summary

Daily Weather History Graph

Daily Weather History Graph

Search for Another Location

Airport:

Trip Planner

Search our weather history database for the weather conditions in past years. The results will help you decide how hot, cold, wet, or windy it might be!

Date:

Astronomy

Feb. 21, 2013 Rise Set
Actual Time 7:23 AM CST 6:05 PM CST
Civil Twilight 6:52 AM CST 6:36 PM CST
Nautical Twilight 6:17 AM CST 7:11 PM CST
Astronomical Twilight 5:43 AM CST 7:45 PM CST
Moon 2:13 PM CST (2/21) 4:38 AM CST (2/21)
Length of Visible Light 11h 43m
Length of Day
10h 42m
Waxing Gibbous, 84% of the Moon is Illuminated
Feb 21
Waxing Gibbous
Feb 25
Full
Mar 4
Last Quarter
Mar 11
New
Mar 19
First Quarter

Hourly Weather History & Observations

Time (CST) Temp. Windchill Dew Point Humidity Pressure Visibility Wind Dir Wind Speed Gust Speed Precip Events Conditions
12:15 AM 1.4 °F -11.3 °F -5.8 °F 72% 30.30 in 10.0 mi East 6.9 mph - 0.00 in   Clear
12:35 AM 1.4 °F -9.9 °F -5.8 °F 72% 30.30 in 10.0 mi SE 5.8 mph - 0.00 in   Clear
12:55 AM 1.4 °F -12.5 °F -5.8 °F 72% 30.30 in 10.0 mi SE 8.1 mph - 0.00 in   Clear
1:15 AM 3.2 °F -9.1 °F -4.0 °F 72% 30.31 in 10.0 mi East 6.9 mph - 0.00 in   Clear
1:35 AM 3.2 °F -9.1 °F -4.0 °F 72% 30.31 in 10.0 mi East 6.9 mph - 0.00 in   Mostly Cloudy
1:55 AM 5.0 °F -6.9 °F -0.4 °F 78% 30.30 in 10.0 mi ESE 6.9 mph - 0.00 in   Scattered Clouds
2:15 AM 8.6 °F -6.3 °F 1.4 °F 73% 30.30 in 10.0 mi SE 11.5 mph - 0.00 in   Unknown
2:35 AM 8.6 °F -5.5 °F 1.4 °F 73% 30.30 in 10.0 mi SE 10.4 mph - 0.00 in   Scattered Clouds
2:55 AM 8.6 °F -5.5 °F 1.4 °F 73% 30.30 in 10.0 mi SE 10.4 mph - 0.00 in   Overcast
3:15 AM 8.6 °F -6.3 °F 1.4 °F 73% 30.30 in 10.0 mi ESE 11.5 mph - 0.00 in   Overcast
3:35 AM 8.6 °F -5.5 °F 1.4 °F 73% 30.30 in 10.0 mi ESE 10.4 mph - 0.00 in   Overcast
3:55 AM 8.6 °F -7.0 °F 1.4 °F 73% 30.29 in 10.0 mi ESE 12.7 mph - 0.00 in   Unknown
4:15 AM 8.6 °F -7.0 °F 1.4 °F 73% 30.29 in 10.0 mi ESE 12.7 mph - 0.00 in   Overcast
4:35 AM 8.6 °F -7.0 °F 1.4 °F 73% 30.29 in 10.0 mi ESE 12.7 mph - 0.00 in   Overcast
4:55 AM 8.6 °F -7.7 °F 1.4 °F 73% 30.28 in 10.0 mi ESE 13.8 mph - 0.00 in   Unknown
5:15 AM 6.8 °F -11.8 °F -0.4 °F 72% 30.27 in 10.0 mi East 17.3 mph - 0.00 in   Unknown
5:35 AM 5.0 °F -9.1 °F -0.4 °F 78% 30.27 in 10.0 mi East 9.2 mph - 0.00 in   Mostly Cloudy
6:15 AM 1.4 °F -11.3 °F -4.0 °F 78% 30.27 in 10.0 mi East 6.9 mph - 0.00 in   Clear
6:35 AM 1.4 °F -12.5 °F -4.0 °F 78% 30.27 in 10.0 mi East 8.1 mph - 0.00 in   Clear
6:55 AM 1.4 °F -9.9 °F -4.0 °F 78% 30.29 in 10.0 mi East 5.8 mph - 0.00 in   Unknown
7:15 AM 1.4 °F -9.9 °F -4.0 °F 78% 30.31 in 10.0 mi ESE 5.8 mph - 0.00 in   Unknown
7:35 AM 1.4 °F -11.3 °F -4.0 °F 78% 30.32 in 10.0 mi SE 6.9 mph - 0.00 in   Mostly Cloudy
7:55 AM 1.4 °F -11.3 °F -4.0 °F 78% 30.33 in 10.0 mi ESE 6.9 mph - 0.00 in   Unknown
8:15 AM 3.2 °F -12.2 °F -2.2 °F 78% 30.33 in 10.0 mi East 10.4 mph - 0.00 in   Unknown
8:35 AM 3.2 °F -11.3 °F -2.2 °F 78% 30.32 in 10.0 mi East 9.2 mph - 0.00 in   Clear
8:55 AM 3.2 °F -14.6 °F -2.2 °F 78% 30.30 in 10.0 mi East 13.8 mph - 0.00 in   Unknown
9:15 AM 3.2 °F -12.2 °F -2.2 °F 78% 30.29 in 10.0 mi ENE 10.4 mph - 0.00 in   Unknown
9:35 AM 3.2 °F -11.3 °F -4.0 °F 72% 30.29 in 10.0 mi NE 9.2 mph - 0.00 in   Partly Cloudy
9:55 AM 3.2 °F -10.3 °F -2.2 °F 78% 30.29 in 10.0 mi East 8.1 mph - 0.00 in   Unknown
10:15 AM 5.0 °F -9.1 °F -0.4 °F 78% 30.30 in 10.0 mi East 9.2 mph - 0.00 in   Unknown
10:35 AM 5.0 °F -8.1 °F -0.4 °F 78% 30.30 in 10.0 mi East 8.1 mph - 0.00 in   Unknown
10:55 AM 5.0 °F -10.0 °F -0.4 °F 78% 30.31 in 10.0 mi East 10.4 mph - 0.00 in   Unknown
11:15 AM 6.8 °F -7.8 °F -0.4 °F 72% 30.31 in 10.0 mi ESE 10.4 mph - 0.00 in   Overcast
11:35 AM 8.6 °F -7.7 °F 1.4 °F 73% 30.31 in 10.0 mi ESE 13.8 mph - 0.00 in   Unknown
11:55 AM 8.6 °F -6.3 °F 3.2 °F 79% 30.30 in 10.0 mi ESE 11.5 mph - 0.00 in   Unknown
12:15 PM 10.4 °F -4.1 °F 3.2 °F 73% 30.29 in 10.0 mi ESE 11.5 mph - 0.00 in   Unknown
12:35 PM 10.4 °F -3.3 °F 3.2 °F 73% 30.29 in 10.0 mi ESE 10.4 mph - 0.00 in   Unknown
12:55 PM 10.4 °F -4.1 °F 3.2 °F 73% 30.28 in 10.0 mi ESE 11.5 mph - 0.00 in   Scattered Clouds
1:15 PM 12.2 °F -1.0 °F 5.0 °F 73% 30.27 in 10.0 mi ESE 10.4 mph - 0.00 in   Scattered Clouds
1:35 PM 12.2 °F -0.2 °F 5.0 °F 73% 30.27 in 10.0 mi East 9.2 mph - 0.00 in   Unknown
1:55 PM 12.2 °F -1.0 °F 5.0 °F 73% 30.25 in 10.0 mi East 10.4 mph - 0.00 in   Partly Cloudy
2:15 PM 12.2 °F -1.8 °F 5.0 °F 73% 30.24 in 10.0 mi East 11.5 mph - 0.00 in   Clear
2:35 PM 12.2 °F -1.8 °F 6.8 °F 79% 30.23 in 10.0 mi East 11.5 mph - 0.00 in   Unknown
2:55 PM 12.2 °F -3.1 °F 6.8 °F 79% 30.23 in 10.0 mi East 13.8 mph - 0.00 in   Unknown
3:15 PM 14.0 °F 0.5 °F 8.6 °F 79% 30.23 in 10.0 mi East 11.5 mph - 0.00 in   Unknown
3:35 PM 14.0 °F 0.5 °F 8.6 °F 79% 30.22 in 10.0 mi East 11.5 mph - 0.00 in   Unknown
3:55 PM 14.0 °F 0.5 °F 8.6 °F 79% 30.22 in 10.0 mi East 11.5 mph - 0.00 in   Clear
4:35 PM 12.2 °F 0.7 °F 8.6 °F 85% 30.21 in 10.0 mi ENE 8.1 mph - 0.00 in   Unknown
4:55 PM 12.2 °F -1.0 °F 8.6 °F 85% 30.22 in 10.0 mi East 10.4 mph - 0.00 in   Clear
5:15 PM 12.2 °F 1.7 °F 6.8 °F 79% 30.22 in 10.0 mi ENE 6.9 mph - 0.00 in   Unknown
5:35 PM 12.2 °F 2.9 °F 8.6 °F 85% 30.22 in 10.0 mi ENE 5.8 mph - 0.00 in   Unknown
5:55 PM 12.2 °F 2.9 °F 8.6 °F 85% 30.23 in 10.0 mi NE 5.8 mph - 0.00 in   Overcast
6:15 PM 12.2 °F 2.9 °F 8.6 °F 85% 30.22 in 10.0 mi NE 5.8 mph - 0.00 in   Overcast
6:35 PM 12.2 °F 1.7 °F 8.6 °F 85% 30.21 in 10.0 mi NNE 6.9 mph - 0.00 in   Overcast
6:55 PM 10.4 °F -0.4 °F 5.0 °F 79% 30.21 in 10.0 mi North 6.9 mph - 0.00 in   Mostly Cloudy
7:15 PM 10.4 °F -0.4 °F 5.0 °F 79% 30.20 in 10.0 mi North 6.9 mph - 0.00 in   Clear
7:35 PM 8.6 °F -2.6 °F 3.2 °F 79% 30.20 in 10.0 mi NNE 6.9 mph - 0.00 in   Scattered Clouds
7:55 PM 8.6 °F -3.7 °F 5.0 °F 85% 30.20 in 10.0 mi North 8.1 mph - 0.00 in   Partly Cloudy
8:15 PM 10.4 °F -1.5 °F 5.0 °F 79% 30.19 in 10.0 mi North 8.1 mph - 0.00 in   Clear
8:35 PM 10.4 °F -2.4 °F 6.8 °F 85% 30.18 in 10.0 mi North 9.2 mph - 0.00 in   Clear
9:15 PM 12.2 °F -0.2 °F 6.8 °F 79% 30.18 in 10.0 mi NNE 9.2 mph - 0.00 in   Clear
9:35 PM 12.2 °F -1.0 °F 6.8 °F 79% 30.17 in 10.0 mi NNE 10.4 mph - 0.00 in   Clear
9:55 PM 12.2 °F -1.0 °F 8.6 °F 85% 30.16 in 10.0 mi NNE 10.4 mph - 0.00 in   Clear
10:15 PM 12.2 °F -1.8 °F 8.6 °F 85% 30.16 in 10.0 mi NNE 11.5 mph - 0.00 in   Clear
10:35 PM 12.2 °F 0.7 °F 8.6 °F 85% 30.15 in 10.0 mi NNE 8.1 mph - 0.00 in   Unknown
10:55 PM 14.0 °F 2.9 °F 8.6 °F 79% 30.14 in 10.0 mi North 8.1 mph - 0.00 in   Unknown
11:15 PM 14.0 °F 2.0 °F 8.6 °F 79% 30.14 in 10.0 mi North 9.2 mph - 0.00 in   Clear
11:35 PM 14.0 °F 1.2 °F 8.6 °F 79% 30.13 in 10.0 mi NNE 10.4 mph - 0.00 in   Unknown
11:55 PM 12.2 °F -1.0 °F 8.6 °F 85% 30.12 in 10.0 mi NNE 10.4 mph - 0.00 in   Unknown